Vorticity
nan nan nan nan nan nan nan nan nan nan nan nan nan nan nan nan nan nan nan nan nan nan nan nan nan nan nan nan nan nan nan nan nan nan nan nan nan nan nan nan nan nan nan nan nan nan nan nan nan nan nan nan nan nan nan nan nan nan nan nan nan nan nan nan nan nan nan nan nan
nan 11 13 14 13 11 10 8 9 9 10 9 9 10 10 10 9 9 8 8 8 7 7 6 5 4 4 5 7 8 8 8 7 7 7 7 7 7 7 8 8 8 8 9 10 10 10 10 10 10 9 9 9 9 8 8 8 8 7 7 9 10 11 12 11 12 13 15 nan
nan 17 14 12 11 10 8 7 9 9 9 8 8 9 9 9 9 9 8 7 6 6 6 5 5 6 7 9 10 9 9 8 7 7 7 7 7 7 7 7 8 8 8 9 9 8 7 8 9 9 8 7 7 7 8 9 8 9 11 12 10 10 9 11 12 13 15 15 nan
nan 16 11 10 10 8 6 8 10 9 7 7 8 8 9 9 9 8 7 6 5 5 5 5 6 7 9 10 9 8 7 6 7 8 8 8 8 8 8 7 8 8 8 8 8 7 7 8 10 9 8 7 8 9 8 8 8 9 11 13 11 9 9 9 11 12 12 10 nan
nan 12 9 10 10 8 7 10 10 8 7 8 8 8 8 8 8 7 5 4 4 4 5 6 7 8 8 8 7 7 7 7 9 10 10 9 9 9 8 7 8 8 9 8 7 7 8 9 10 10 9 10 11 9 7 6 7 8 8 9 9 9 10 9 10 10 9 8 nan
nan 11 11 11 10 9 10 12 11 9 9 10 12 10 8 8 8 7 6 5 6 6 6 8 8 8 8 7 8 8 9 10 10 9 8 8 8 8 8 8 8 7 7 7 7 8 9 10 10 9 10 11 10 9 8 8 9 8 7 7 8 9 9 8 9 9 8 5 nan
nan 10 9 9 8 10 12 12 10 9 9 11 11 8 7 7 8 8 7 7 8 8 9 10 9 8 8 8 9 9 9 9 8 8 7 8 7 7 7 8 8 7 7 7 8 9 9 10 10 9 9 10 10 10 10 9 9 8 7 6 8 8 9 8 8 8 7 5 nan
nan 8 8 8 8 9 11 11 10 9 8 9 9 7 6 6 7 7 7 8 8 9 9 8 8 7 8 8 8 8 8 8 7 7 7 7 7 7 7 8 8 8 8 9 9 8 8 10 10 9 9 9 9 10 11 9 7 6 6 7 7 7 8 9 7 6 5 6 nan
nan 7 7 8 8 8 9 9 8 8 8 8 7 6 5 6 6 7 7 8 8 8 8 7 7 8 8 7 7 8 9 9 8 7 6 6 7 7 7 8 8 8 9 10 10 9 9 9 8 8 8 8 7 7 8 8 7 6 7 9 8 6 4 5 4 4 4 7 nan
nan 8 7 7 8 8 7 6 6 6 7 6 5 4 4 5 6 7 7 8 8 7 7 7 7 7 7 8 8 9 9 9 9 8 7 6 7 7 7 7 7 7 7 8 10 11 11 10 7 6 5 6 5 5 6 7 7 7 7 9 6 4 3 3 3 4 6 8 nan
nan 7 7 8 8 6 4 4 4 5 5 5 5 4 4 5 6 6 7 7 7 7 7 7 7 7 7 9 9 9 9 8 8 8 8 7 7 7 7 6 7 6 7 7 9 11 12 9 7 5 3 3 6 8 8 7 7 7 6 4 3 5 6 5 5 7 9 9 nan
nan 8 9 10 8 4 3 3 4 5 6 6 6 6 6 6 7 7 7 7 8 8 8 7 6 7 7 8 8 8 8 7 7 8 9 9 8 8 8 7 7 8 8 10 11 10 9 6 5 4 4 4 7 9 8 7 8 8 7 4 5 7 8 7 7 8 8 8 nan
nan 10 10 9 7 4 3 3 5 6 7 7 7 7 8 8 9 9 9 9 8 8 7 7 8 8 8 6 6 6 7 7 8 8 7 8 8 8 8 8 8 9 11 13 11 8 6 6 5 6 6 7 6 5 6 7 8 8 8 7 7 7 7 8 8 7 7 6 nan
nan 10 9 8 6 4 3 4 5 7 8 8 8 8 8 9 9 10 10 9 8 8 8 8 9 9 8 6 6 6 7 7 7 7 6 6 6 7 8 8 8 9 10 11 9 7 6 6 7 8 9 9 6 5 5 8 8 9 9 9 8 8 8 9 9 8 8 8 nan
nan 9 7 6 4 4 4 5 6 7 8 8 8 8 8 9 9 9 9 8 8 8 8 7 7 8 8 9 9 9 9 8 8 7 7 7 7 7 7 7 7 8 7 6 6 7 8 8 10 11 11 10 9 7 7 8 8 8 9 9 9 9 9 9 9 9 9 10 nan
nan 7 5 4 3 4 5 6 7 8 9 8 8 8 8 8 8 8 7 7 8 8 8 7 7 9 11 12 11 11 11 9 9 8 8 8 8 7 7 7 7 7 6 6 6 6 7 9 11 11 11 11 11 10 9 9 9 9 9 9 9 9 9 9 9 9 9 9 nan
nan 4 3 3 4 4 5 6 7 7 8 8 7 7 7 7 7 7 8 7 7 7 7 8 9 10 10 10 11 11 11 9 9 8 8 8 7 7 7 8 8 8 8 8 7 6 6 7 8 10 11 12 12 12 12 11 11 10 10 10 10 10 10 10 9 9 9 8 nan
nan 3 3 4 5 5 5 6 6 7 7 6 6 6 6 7 6 7 8 8 8 8 8 9 9 9 9 8 8 9 10 9 7 7 6 6 7 8 8 8 9 9 9 9 9 9 9 9 9 10 10 11 11 11 12 12 11 10 10 10 10 10 10 9 9 9 9 8 nan
nan 4 4 5 6 6 7 7 7 7 7 7 7 7 6 7 7 7 7 8 8 8 8 9 9 8 8 7 7 7 7 9 8 7 7 7 8 8 8 8 9 9 9 10 11 11 11 11 11 10 9 9 9 9 10 10 10 10 10 11 11 10 9 9 9 8 7 7 nan
nan 5 6 7 8 8 9 9 8 8 7 8 8 8 8 8 7 7 6 6 7 7 7 7 7 7 7 7 6 6 7 9 9 9 9 9 8 8 8 9 10 10 11 12 12 12 11 11 10 10 9 9 8 8 9 10 10 10 10 11 11 10 9 8 9 9 9 11 nan
nan 6 8 9 9 9 9 9 9 9 9 8 9 8 8 8 7 7 7 7 7 7 7 8 8 7 8 8 8 8 8 8 8 9 9 10 9 9 10 11 11 11 11 11 11 10 10 11 11 10 10 11 10 10 10 11 11 11 10 9 9 9 10 11 12 13 15 16 nan
nan 8 9 9 9 10 10 10 10 10 10 9 8 8 7 7 7 8 8 9 9 9 9 9 9 9 9 8 8 9 8 7 7 7 8 9 9 10 11 12 11 11 11 12 12 12 13 13 12 12 11 12 11 11 11 11 11 12 11 9 9 11 13 15 17 16 15 14 nan
nan 9 10 10 10 10 10 10 10 10 9 7 7 7 7 7 8 8 9 9 9 9 10 11 11 10 9 8 8 8 7 6 6 6 7 8 9 9 10 11 11 12 14 17 16 15 15 16 15 14 12 11 11 12 11 11 11 11 11 11 12 13 15 16 14 12 9 7 nan
nan 10 9 9 8 9 9 9 9 8 7 6 5 6 7 7 8 9 10 10 10 10 11 11 10 10 9 9 8 8 8 7 7 8 9 9 10 11 12 13 14 16 18 17 13 10 9 10 12 13 13 11 11 11 11 10 9 9 10 12 12 13 12 9 7 5 4 3 nan
nan 8 8 7 7 8 8 8 8 7 6 6 5 5 5 7 9 10 11 11 11 11 10 9 8 9 10 10 10 10 10 10 10 11 11 12 11 12 13 14 15 17 16 12 9 6 5 2 3 6 10 12 12 12 12 11 11 11 12 13 13 12 11 8 7 6 5 6 nan
nan 7 7 7 8 8 8 8 8 7 7 6 5 5 5 7 9 10 10 10 10 10 9 9 10 11 11 11 10 11 11 12 12 12 11 12 12 12 12 12 13 13 12 8 8 9 9 6 4 4 7 12 14 15 15 15 15 15 15 14 14 12 11 10 9 9 9 9 nan
nan 8 8 8 8 9 9 9 8 7 7 6 6 7 7 8 8 8 9 9 9 9 9 11 12 13 13 13 12 12 11 10 11 11 12 11 11 11 11 11 11 10 8 6 7 10 12 12 12 11 12 15 16 16 16 15 15 15 14 13 12 11 10 10 10 10 10 9 nan
nan 8 8 8 9 10 10 9 8 7 6 6 8 9 9 9 9 8 8 7 7 9 11 13 14 13 13 11 11 10 9 8 9 11 12 11 11 11 11 11 10 7 4 4 7 10 11 13 16 18 18 16 16 15 14 12 12 11 11 11 11 11 11 10 11 11 12 12 nan
nan 9 10 10 10 10 10 9 8 8 9 10 9 9 9 10 10 9 7 6 7 9 10 12 12 10 7 6 7 8 9 10 11 11 11 11 11 11 11 10 9 7 5 6 8 10 11 14 16 16 14 13 13 11 10 9 8 8 9 10 9 8 7 8 8 9 11 15 nan
nan 10 11 11 11 11 10 10 10 11 12 11 8 7 8 8 8 8 7 8 10 10 9 8 6 4 3 4 7 8 9 11 11 10 10 10 10 10 9 9 8 8 7 7 9 11 12 14 14 11 8 9 11 9 8 6 6 7 8 7 6 5 6 8 8 9 9 10 nan
nan 9 10 11 11 11 11 11 12 11 10 7 6 7 8 8 8 9 10 12 11 9 7 6 5 5 5 7 7 7 8 9 9 9 10 10 9 9 8 8 9 9 7 8 10 12 12 12 9 7 5 8 11 9 7 6 7 8 8 6 6 7 9 11 13 12 9 6 nan
nan 8 9 10 11 12 12 12 10 8 7 6 9 10 10 9 9 9 10 10 9 8 7 8 9 9 9 9 9 9 9 10 10 9 9 8 8 8 9 10 12 11 8 8 11 10 9 7 6 5 4 8 12 10 7 7 10 12 11 10 10 10 9 8 10 11 10 8 nan
nan 9 8 9 11 11 11 10 9 8 8 9 10 10 9 9 9 8 9 10 10 11 12 13 12 12 12 12 12 12 12 12 11 10 9 8 8 9 10 13 15 12 8 7 8 7 6 5 4 4 4 10 15 12 10 9 12 13 13 13 13 13 12 8 7 8 9 9 nan
nan 9 8 8 9 10 10 10 10 10 10 10 9 8 8 8 7 8 10 11 12 13 14 14 13 13 13 12 12 13 13 11 9 9 10 10 10 10 12 14 12 7 4 5 5 5 4 4 4 5 7 15 20 16 13 12 11 10 9 9 10 11 12 12 10 10 10 10 nan
nan 10 11 11 10 10 10 10 10 9 9 9 9 8 8 8 9 10 11 12 12 11 11 11 11 11 10 10 12 12 10 8 8 9 10 11 11 11 11 11 7 3 3 5 5 4 4 4 5 7 12 21 21 17 14 15 14 12 10 9 10 11 11 12 13 13 14 14 nan
nan 15 16 15 12 10 9 9 9 8 8 9 9 9 9 9 11 12 13 13 12 10 9 10 10 9 9 11 11 10 8 8 9 10 11 11 11 12 12 11 8 6 6 6 5 4 4 5 6 10 16 23 19 14 13 16 16 16 14 13 13 14 14 15 14 14 14 14 nan
nan 17 16 13 11 10 9 9 8 8 8 9 9 9 10 11 13 13 14 13 11 10 10 10 9 9 9 10 8 7 6 8 10 11 12 12 12 12 12 11 10 9 7 4 4 4 4 6 8 12 18 20 14 12 12 14 14 15 16 17 16 16 16 17 18 17 15 12 nan
nan 13 11 8 8 8 8 8 8 8 8 9 10 10 10 13 14 13 13 12 10 10 11 10 9 9 9 8 8 8 8 9 10 12 12 13 12 11 10 11 11 9 5 2 3 5 6 8 10 13 16 15 12 12 13 13 12 12 13 15 16 16 15 14 16 18 19 17 nan
nan 9 7 7 7 7 7 6 7 8 9 10 10 9 11 13 13 12 11 11 10 10 10 9 8 8 8 9 9 10 9 10 11 12 13 13 10 9 9 10 9 7 4 3 5 7 9 11 12 13 15 15 14 14 14 13 12 11 11 12 13 15 15 14 15 17 19 21 nan
nan 7 7 7 7 6 6 6 8 10 11 11 10 11 13 14 12 11 11 10 9 9 9 8 7 7 8 9 10 10 10 11 12 12 12 10 7 7 10 11 8 7 5 6 8 10 11 12 12 13 17 18 16 15 14 13 13 11 10 10 12 14 17 17 16 15 15 17 nan
nan nan nan nan nan nan nan nan nan nan nan nan nan nan nan nan nan nan nan nan nan nan nan nan nan nan nan nan nan nan nan nan nan nan nan nan nan nan nan nan nan nan nan nan nan nan nan nan nan nan nan nan nan nan nan nan nan nan nan nan nan nan nan nan nan nan nan nan nan
CAPE
nan nan nan nan nan nan nan nan nan nan nan nan nan nan nan nan nan nan nan nan nan nan nan nan nan nan nan nan nan nan nan nan nan nan nan nan nan nan nan nan nan nan nan nan nan nan nan nan nan nan nan nan nan nan nan nan nan nan nan nan nan nan nan nan nan nan nan nan nan
nan nan nan nan nan nan nan nan nan nan nan nan nan nan nan nan nan nan nan nan nan nan nan nan nan nan nan nan nan nan nan nan nan nan nan nan nan nan nan nan nan nan nan nan nan nan nan nan nan nan nan nan nan nan nan nan nan nan nan nan nan nan nan nan nan nan nan nan nan
nan nan nan nan nan nan nan nan nan nan nan nan nan nan nan nan nan nan nan nan nan nan nan nan nan nan nan nan nan nan nan nan nan nan nan nan nan nan nan nan nan nan nan nan nan nan nan nan nan nan nan nan nan nan nan nan nan nan nan nan nan nan nan nan nan nan nan nan nan
nan nan nan nan nan nan nan nan nan nan nan nan nan nan nan nan nan nan nan nan nan nan nan nan nan nan nan nan nan nan nan nan nan nan nan nan nan nan nan nan nan nan nan nan nan nan nan nan nan nan nan nan nan nan nan nan nan nan nan nan nan nan nan nan nan nan nan nan nan
nan nan nan nan nan nan nan nan nan nan nan nan nan nan nan nan nan nan nan nan nan nan nan nan nan nan nan nan nan nan nan nan nan nan nan nan nan nan nan nan nan nan nan nan nan nan nan nan nan nan nan nan nan nan nan nan nan nan nan nan nan nan nan nan nan nan nan nan nan
nan nan nan nan nan nan nan nan nan nan nan nan nan nan nan nan nan nan nan nan nan nan nan nan nan nan nan nan nan nan nan nan nan nan nan nan nan nan nan nan nan nan nan nan nan nan nan nan nan nan nan nan nan nan nan nan nan nan nan nan nan nan nan nan nan nan nan nan nan
nan nan nan nan nan nan nan nan nan nan nan nan nan nan nan nan nan nan nan nan nan nan nan nan nan nan nan nan nan nan nan nan nan nan nan nan nan nan nan nan nan nan nan nan nan nan nan nan nan nan nan nan nan nan nan nan nan nan nan nan nan nan nan nan nan nan nan nan nan
nan nan nan nan nan nan nan nan nan nan nan nan nan nan nan nan nan nan nan nan nan nan nan nan nan nan nan nan nan nan nan nan nan nan nan nan nan nan nan nan nan nan nan nan nan nan nan nan nan nan nan nan nan nan nan nan nan nan nan nan nan nan nan nan nan nan nan nan nan
nan nan nan nan nan nan nan nan nan nan nan nan nan nan nan nan nan nan nan nan nan nan nan nan nan nan nan nan nan nan nan nan nan nan nan nan nan nan nan nan nan nan nan nan nan nan nan nan nan nan nan nan nan nan nan nan nan nan nan nan nan nan nan nan nan nan nan nan nan
nan nan nan nan nan nan nan nan nan nan nan nan nan nan nan nan nan nan nan nan nan nan nan nan nan nan nan nan nan nan nan nan nan nan nan nan nan nan nan nan nan nan nan nan nan nan nan nan nan nan nan nan nan nan nan nan nan nan nan nan nan nan nan nan nan nan nan nan nan
nan nan nan nan nan nan nan nan nan nan nan nan nan nan nan nan nan nan nan nan nan nan nan nan nan nan nan nan nan nan nan nan nan nan nan nan nan nan nan nan nan nan nan nan nan nan nan nan nan nan nan nan nan nan nan nan nan nan nan nan nan nan nan nan nan nan nan nan nan
nan nan nan nan nan nan nan nan nan nan nan nan nan nan nan nan nan nan nan nan nan nan nan nan nan nan nan nan nan nan nan nan nan nan nan nan nan nan nan nan nan nan nan nan nan nan nan nan nan nan nan nan nan nan nan nan nan nan nan nan nan nan nan nan nan nan nan nan nan
nan nan nan nan nan nan nan nan nan nan nan nan nan nan nan nan nan nan nan nan nan nan nan nan nan nan nan nan nan nan nan nan nan nan nan nan nan nan nan nan nan nan nan nan nan nan nan nan nan nan nan nan nan nan nan nan nan nan nan nan nan nan nan nan nan nan nan nan nan
nan nan nan nan nan nan nan nan nan nan nan nan nan nan nan nan nan nan nan nan nan nan nan nan nan nan nan nan nan nan nan nan nan nan nan nan nan nan nan nan nan nan nan nan nan nan nan nan nan nan nan nan nan nan nan nan nan nan nan nan nan nan nan nan nan nan nan nan nan
nan nan nan nan nan nan nan nan nan nan nan nan nan nan nan nan nan nan nan nan nan nan nan nan nan nan nan nan nan nan nan nan nan nan nan nan nan nan nan nan nan nan nan nan nan nan nan nan nan nan nan nan nan nan nan nan nan nan nan nan nan nan nan nan nan nan nan nan nan
nan nan nan nan nan nan nan nan nan nan nan nan nan nan nan nan nan nan nan nan nan nan nan nan nan nan nan nan nan nan nan nan nan nan nan nan nan nan nan nan nan nan nan nan nan nan nan nan nan nan nan nan nan nan nan nan nan nan nan nan nan nan nan nan nan nan nan nan nan
nan nan nan nan nan nan nan nan nan nan nan nan nan nan nan nan nan nan nan nan nan nan nan nan nan nan nan nan nan nan nan nan nan nan nan nan nan nan nan nan nan nan nan nan nan nan nan nan nan nan nan nan nan nan nan nan nan nan nan nan nan nan nan nan nan nan nan nan nan
nan nan nan nan nan nan nan nan nan nan nan nan nan nan nan nan nan nan nan nan nan nan nan nan nan nan nan nan nan nan nan nan nan nan nan nan nan nan nan nan nan nan nan nan nan nan nan nan nan nan nan nan nan nan nan nan nan nan nan nan nan nan nan nan nan nan nan 0 0
nan nan nan nan nan nan nan nan nan nan nan nan nan nan nan nan nan nan nan nan nan nan nan nan nan nan nan nan nan nan nan nan nan nan nan nan nan nan nan nan nan nan nan nan nan nan nan nan nan nan nan nan nan nan nan nan nan nan nan nan nan nan nan nan nan nan 0 5 4
nan nan nan nan nan nan nan nan nan nan nan nan nan nan nan nan nan nan nan nan nan nan nan nan nan nan nan nan nan nan nan nan nan nan nan nan nan nan nan nan nan nan nan nan nan nan nan nan nan nan nan nan nan nan nan nan nan nan nan nan nan nan nan 0 4 4 7 6 nan
nan nan nan nan nan nan nan nan nan nan nan nan nan nan nan nan nan nan nan nan nan nan nan nan nan nan nan nan nan nan nan nan nan nan nan nan nan nan nan nan nan nan nan nan nan nan nan nan nan nan nan nan nan nan nan nan nan nan nan nan nan 2 2 5 8 8 3 nan nan
nan nan nan nan nan nan nan nan nan nan nan nan nan nan nan nan nan nan nan nan nan 1 1 0 0 nan nan nan nan nan nan nan nan nan nan nan nan nan nan nan nan nan nan nan nan nan nan nan nan nan nan nan nan nan nan nan nan nan nan 2 5 9 9 5 1 1 nan nan nan
nan nan nan nan nan nan nan nan nan nan nan nan nan nan nan nan nan nan nan 0 1 3 3 0 nan nan nan nan nan nan nan nan nan nan nan nan nan nan nan nan nan nan nan nan nan nan nan nan nan nan nan nan nan nan nan nan nan nan nan 1 3 2 2 nan nan nan nan nan nan
nan nan nan nan nan nan nan nan nan nan nan nan nan nan nan nan nan nan nan 1 0 nan nan nan nan nan nan nan nan nan nan nan nan nan nan nan nan nan nan nan nan nan nan nan nan nan nan nan nan nan nan nan nan nan nan nan nan nan nan nan nan nan nan nan nan nan nan nan nan
nan nan nan nan nan nan nan nan nan nan nan nan nan nan nan nan nan 2 2 5 3 nan nan nan nan nan nan nan nan nan nan nan nan nan nan nan nan nan nan nan nan nan nan nan nan nan 0 nan nan nan nan nan nan nan nan nan 0 0 0 nan nan nan nan nan nan nan nan nan nan
nan nan nan nan nan nan nan nan nan nan nan nan nan nan nan nan nan 2 2 2 0 nan nan nan nan nan nan nan nan nan nan nan nan nan nan nan nan nan nan nan nan nan nan nan nan nan nan 2 1 1 nan nan nan nan nan nan nan 0 0 nan nan nan nan nan nan nan nan nan nan
nan nan nan nan nan nan nan nan nan nan nan nan nan nan nan nan nan nan nan nan nan nan nan nan nan nan nan nan nan nan nan nan nan nan nan nan nan nan nan nan nan nan nan nan nan nan nan 2 5 5 0 nan nan nan nan nan nan nan nan nan nan nan nan nan nan nan nan nan nan
nan nan nan nan nan nan nan nan nan nan nan nan nan nan nan nan nan nan nan nan nan nan nan nan nan nan nan nan nan nan nan nan nan nan nan nan nan nan nan nan nan nan nan nan nan nan nan 1 6 6 2 nan nan nan nan nan nan nan nan nan nan nan nan nan nan nan nan nan nan
nan nan nan nan nan nan nan nan nan nan nan nan nan nan nan 0 0 nan nan nan nan nan nan nan nan nan nan nan nan nan nan nan nan nan nan nan nan nan nan nan nan nan nan nan nan nan nan 0 1 1 0 nan nan nan nan nan nan nan nan nan nan nan nan nan nan nan nan nan nan
nan nan nan nan nan nan nan nan nan nan nan nan 0 1 1 0 nan nan nan nan nan nan nan nan nan nan nan nan nan nan nan nan nan nan nan nan nan nan nan nan nan nan nan nan nan nan 0 2 1 1 nan nan nan nan nan nan nan nan nan nan nan nan nan nan nan nan nan nan nan
nan nan nan nan nan nan nan nan nan nan 1 2 4 1 1 nan nan nan nan nan nan nan nan nan nan nan nan nan nan nan nan nan nan nan nan nan nan nan nan nan nan nan nan nan nan nan 1 5 2 2 nan nan nan nan nan nan nan nan nan nan nan 0 0 0 0 0 nan nan nan
nan nan nan nan nan nan nan nan 3 3 10 7 3 nan nan nan nan nan nan nan nan nan nan nan nan nan nan nan nan nan nan nan nan nan nan nan nan nan nan nan nan nan nan nan 0 0 2 3 0 0 nan nan nan nan nan nan nan nan nan 0 1 0 0 0 nan nan nan nan nan
nan nan nan nan nan nan nan 4 15 15 14 9 2 nan nan nan nan nan nan nan nan nan nan nan nan nan nan nan nan nan nan nan nan nan nan nan nan nan nan nan nan nan nan nan 0 0 1 0 nan nan nan nan nan nan nan nan 0 1 1 1 1 1 1 nan nan nan nan nan nan
nan nan nan nan nan nan 4 9 10 10 13 5 nan nan nan nan nan nan nan nan nan nan nan nan nan nan nan nan nan nan nan nan nan nan nan nan nan nan nan nan nan nan nan nan 0 0 0 nan nan nan nan nan nan nan nan 1 3 3 3 2 1 nan nan nan nan nan nan nan nan
3 3 3 2 10 10 13 12 10 10 9 1 nan nan nan nan nan nan nan nan nan nan nan nan nan nan nan nan nan nan nan nan nan nan nan nan nan nan nan nan nan nan nan nan 0 0 nan nan nan nan 1 0 nan 0 0 1 1 0 0 nan nan nan nan nan nan nan nan nan nan
7 48 48 44 14 14 11 7 5 5 0 0 nan nan nan nan nan nan nan nan nan nan nan nan nan nan nan nan nan nan nan nan nan nan nan nan nan nan nan nan nan nan nan nan nan nan nan nan nan nan 5 4 0 0 0 0 nan nan nan nan nan nan nan nan nan nan nan nan nan
16 96 96 83 4 4 3 3 1 1 nan nan nan nan nan nan nan nan nan nan nan nan nan nan nan nan nan nan nan nan nan nan nan nan nan nan nan nan nan nan nan nan nan nan nan nan nan nan 2 2 4 2 nan nan nan nan nan nan nan nan nan nan nan nan nan nan nan nan nan
16 133 133 87 1 1 0 0 nan nan nan nan nan nan nan nan nan nan nan nan nan nan nan nan nan nan nan nan nan nan nan nan nan nan nan nan nan nan nan nan nan nan nan nan nan nan nan 2 2 2 3 nan nan nan nan nan nan nan nan nan nan nan nan nan nan nan nan nan nan
nan nan nan nan nan nan nan nan nan nan nan nan nan nan nan nan nan nan nan nan nan nan nan nan nan nan nan nan nan nan nan nan nan nan nan nan nan nan nan nan nan nan nan nan nan nan 2 3 3 3 2 nan nan nan nan nan nan nan nan nan nan nan nan nan nan nan nan nan 8
nan nan nan nan nan nan nan nan nan nan nan nan nan nan nan nan nan nan nan nan nan nan nan nan nan nan nan nan nan nan nan nan nan nan nan nan nan nan nan nan nan nan nan nan 2 2 5 4 3 3 3 nan nan nan nan nan nan nan nan nan nan nan nan nan nan nan 1 1 39
nan nan nan nan nan nan nan nan nan nan nan nan nan nan nan nan nan nan nan nan nan nan nan nan nan nan nan nan nan nan nan nan nan nan nan nan nan nan nan nan nan nan nan nan 4 4 8 8 7 7 13 nan nan nan nan nan nan nan nan nan nan nan nan nan 1 1 2 nan nan